#timestamp,LO_Frequency,Hit,StdDev 
1456502415.6,286046999.2,N
1456502435.4,286047000.7,N
1456502455.3,286047000.5,N
1456502475.1,286046998.7,N
1456502495.8,286046996.9,N
1456502515.7,286047002.4,N
1456502535.5,286047002.7,N
1456502555.3,286047002.6,N
1456502575.2,286047000.6,N
1456502595.9,286047002.4,N
1456502615.7,286047001.2,N
1456502635.6,286047002.8,N
1456502655.4,286047000.0,N
1456502675.2,286046998.1,N
1456502695.0,286046998.3,N
1456502696.0,286046998.3,N
1456502715.8,286046994.9,N
1456502735.6,286046995.2,N
1456502755.4,286046993.4,N
1456502775.3,286046995.7,N
1456502795.1,286046997.3,N
1456502815.8,286046998.0,N
1456502835.7,286046997.4,N
1456502855.5,286046996.9,N
1456502875.3,286046997.4,N
1456502895.2,286046999.5,N
1456502915.9,286046999.3,N
1456502935.7,286047000.8,N
1456502955.6,286046998.1,N
1456502975.4,286046997.5,N
1456502995.2,286046997.3,N
1456503015.1,286046998.9,N
1456503016.0,286046998.9,N
1456503035.8,286046998.2,N
1456503055.6,286047002.7,N
1456503075.5,286047003.5,N
1456503095.3,286047003.7,N
1456503115.1,286047004.0,N
1456503135.8,286047005.6,N
1456503155.7,286047005.5,N
1456503175.5,286047002.0,N
1456503195.3,286047000.9,N
1456503215.2,286047001.2,N
1456503235.9,286047005.9,N
1456503255.7,286047005.5,N
1456503275.6,286047001.7,N
1456503295.4,286047003.4,N
1456503315.2,286047004.6,N
1456503335.1,286047007.5,N
1456503336.0,286047007.5,N
1456503355.8,286047008.8,N
1456503375.6,286047009.1,N
1456503395.5,286047009.1,N
1456503415.3,286047005.6,N
1456503435.1,286047007.4,N
1456503455.8,286047009.0,N
1456503475.7,286047009.9,N
1456503495.5,286047008.1,N
1456503515.3,286047010.6,N
1456503535.2,286047011.0,N
1456503555.0,286047013.0,Y
1456503555.9,286047013.0,P
1456503575.8,286047009.2,N
1456503595.6,286047010.8,P
1456503615.4,286047009.8,Y
1456503635.3,286046995.0,P
1456503655.1,286046994.5,N
1456503656.0,286046994.5,N
1456503675.8,286046991.7,N
1456503695.6,286046997.8,N
1456503715.5,286046995.1,N
1456503735.3,286046993.7,N
1456503755.1,286046992.4,N
1456503775.9,286046990.9,N
1456503795.7,286046990.1,N
1456503815.5,286046991.6,N
1456503835.4,286046985.7,N
1456503855.2,286046984.6,N
1456503875.0,286046984.3,N
1456503875.9,286046984.3,N
1456503895.8,286046985.1,N
1456503915.6,286046986.5,N
1456503935.4,286046986.8,N
1456503955.3,286046985.0,N
1456503975.1,286046981.8,Y
1456503976.0,286046981.8,P
1456503995.8,286046989.1,N
1456504015.7,286046990.8,N
1456504035.5,286046991.6,N
1456504055.3,286046988.2,Y
1456504075.2,286046995.7,P
1456504095.9,286046996.2,N
1456504115.7,286046997.7,N
1456504135.6,286046998.3,N
1456504155.4,286046996.0,N
1456504175.2,286046997.1,N
1456504195.0,286047001.0,N
1456504195.9,286047001.0,N
1456504215.8,286046997.4,N
1456504235.6,286046997.7,N
1456504255.4,286046997.7,N
1456504275.3,286046997.6,N
1456504295.1,286046993.8,N
1456504315.8,286046996.1,N
1456504335.7,286046993.6,N
1456504355.5,286046990.5,Y
1456504375.3,286046994.4,P
1456504395.2,286046994.4,P
1456504415.9,286046998.0,N
1456504435.7,286046999.1,N
1456504455.6,286046999.7,N
1456504475.4,286047005.7,N
1456504495.2,286047004.4,N
1456504515.1,286046999.3,N
1456504516.0,286046999.3,N
1456504535.8,286046995.4,N
1456504555.6,286046996.0,N
1456504575.5,286046997.8,N
1456504595.3,286046999.1,N
1456504615.1,286046999.9,N
1456504635.8,286046998.8,N
1456504655.7,286046999.9,N
1456504675.5,286047004.2,N
1456504695.3,286047000.8,N
1456504715.2,286047002.7,N
1456504735.9,286046999.7,N
1456504755.7,286047003.5,N
1456504775.6,286047003.3,N
1456504795.4,286047005.4,N
1456504815.2,286047005.5,N
1456504835.1,286047005.7,N
1456504836.0,286047005.7,N
1456504855.8,286047001.9,N
1456504875.6,286046999.8,N
1456504895.4,286046996.6,N
1456504915.3,286046999.0,N
1456504935.1,286046996.6,N
1456504955.8,286046993.3,N
1456504975.7,286046993.4,N
1456504995.5,286046994.7,N
1456505015.3,286046992.2,N
1456505035.2,286046994.6,N
1456505055.9,286046994.0,N
1456505075.7,286046996.0,N
1456505095.6,286046996.1,N
1456505115.4,286046993.8,N
1456505135.2,286046994.2,N
1456505155.1,286046997.1,N
1456505156.0,286046997.1,N
1456505175.8,286046995.7,N
1456505195.6,286046995.6,N
1456505215.5,286046996.2,N
1456505235.3,286046994.4,N
1456505255.1,286046993.8,N
1456505275.8,286046990.9,N
1456505295.7,286046993.0,N
1456505315.5,286046994.3,N
1456505335.3,286046992.7,N
1456505355.2,286046992.9,N
1456505375.9,286046991.7,N
1456505395.7,286046996.1,N
1456505415.6,286046996.2,N
1456505435.4,286046994.3,N
1456505455.2,286046993.8,Y
1456505475.1,286047000.4,P
1456505476.0,286047000.4,N
1456505495.8,286046999.1,N
1456505515.6,286046995.1,N
1456505535.5,286046993.6,N
1456505555.3,286046990.9,Y
1456505575.1,286046993.3,P
1456505595.9,286046997.9,N
1456505615.7,286046996.6,N
1456505635.5,286046997.3,N
1456505655.4,286046999.4,N
1456505675.2,286046998.9,N
1456505695.0,286046996.8,N
1456505695.9,286046996.8,N
1456505715.8,286046999.3,N
1456505735.6,286046999.6,N
1456505755.4,286046997.6,N
1456505775.2,286046995.9,N
1456505795.1,286046993.3,Y
1456505796.0,286046993.3,P
1456505815.8,286046998.6,N
1456505835.7,286047000.2,N
1456505855.5,286046997.4,N
1456505875.3,286046992.4,Y
1456505895.2,286046995.2,P
1456505915.9,286046995.7,P
1456505935.7,286046992.1,P
1456505955.5,286046996.1,N
1456505975.4,286046998.0,N
1456505995.2,286046997.7,N
